EN

Hourly Weather Abutkovo

Today, 14 May, Friday

Time Temperature Precipitation Wind Pressure Humidity
00:00 +7°C° 0 mm 2 mps 743 mmHg 95%
01:00 +7°C° 0 mm 2 mps 743 mmHg 95%
02:00 +6°C° 0 mm 2 mps 743 mmHg 95%
03:00 +7°C° 0 mm 2 mps 743 mmHg 94%
04:00 +7°C° 0 mm 2 mps 743 mmHg 93%
05:00 +7°C° 0 mm 3 mps 743 mmHg 93%
06:00 +9°C° 0 mm 3 mps 743 mmHg 86%
07:00 +11°C° 0 mm 3 mps 743 mmHg 80%
08:00 +13°C° 0 mm 3 mps 743 mmHg 74%
09:00 +16°C° 0 mm 3 mps 743 mmHg 69%
10:00 +17°C° 0 mm 3 mps 743 mmHg 64%
11:00 +18°C° 0 mm 4 mps 743 mmHg 59%
12:00 +19°C° 0 mm 4 mps 743 mmHg 57%
13:00 +20°C° 0 mm 4 mps 742 mmHg 55%
14:00 +20°C° 0 mm 4 mps 742 mmHg 53%
15:00 +20°C° 0.1 mm 3 mps 741 mmHg 58%
16:00 +19°C° 0.1 mm 3 mps 741 mmHg 62%
17:00 +19°C° 0.1 mm 3 mps 740 mmHg 67%
18:00 +17°C° 0 mm 3 mps 740 mmHg 76%
19:00 +16°C° 0 mm 3 mps 740 mmHg 84%
20:00 +13°C° 0 mm 3 mps 739 mmHg 93%
21:00 +13°C° 0.2 mm 3 mps 739 mmHg 94%
22:00 +13°C° 0.2 mm 3 mps 739 mmHg 95%
23:00 +13°C° 0.2 mm 3 mps 739 mmHg 96%

Tomorrow, 15 May, Saturday

Time Temperature Precipitation Wind Pressure Humidity
00:00 +13°C° 0 mm 3 mps 738 mmHg 96%
01:00 +13°C° 0 mm 3 mps 738 mmHg 97%
02:00 +12°C° 0 mm 3 mps 738 mmHg 97%
03:00 +13°C° 0 mm 3 mps 738 mmHg 96%
04:00 +13°C° 0 mm 3 mps 738 mmHg 96%
05:00 +13°C° 0 mm 3 mps 738 mmHg 95%
06:00 +14°C° 0 mm 3 mps 738 mmHg 90%
07:00 +15°C° 0 mm 4 mps 738 mmHg 85%
08:00 +18°C° 0 mm 4 mps 738 mmHg 79%
09:00 +19°C° 0.1 mm 4 mps 738 mmHg 73%
10:00 +20°C° 0.1 mm 4 mps 738 mmHg 67%
11:00 +21°C° 0.1 mm 4 mps 738 mmHg 61%
12:00 +21°C° 0.5 mm 4 mps 738 mmHg 61%
13:00 +21°C° 0.5 mm 5 mps 738 mmHg 61%
14:00 +20°C° 0.5 mm 5 mps 738 mmHg 62%
15:00 +20°C° 0.5 mm 4 mps 738 mmHg 67%
16:00 +19°C° 0.5 mm 4 mps 737 mmHg 71%
17:00 +18°C° 0.5 mm 4 mps 737 mmHg 76%
18:00 +17°C° 0.2 mm 3 mps 737 mmHg 81%
19:00 +16°C° 0.2 mm 3 mps 737 mmHg 86%
20:00 +13°C° 0.2 mm 3 mps 737 mmHg 92%
21:00 +13°C° 0 mm 3 mps 738 mmHg 93%
22:00 +12°C° 0 mm 3 mps 738 mmHg 94%
23:00 +12°C° 0 mm 3 mps 738 mmHg 96%

Day after tomorrow, 16 May, Sunday

Time Temperature Precipitation Wind Pressure Humidity
00:00 +11°C° 0 mm 3 mps 738 mmHg 96%
01:00 +11°C° 0 mm 3 mps 738 mmHg 96%
02:00 +11°C° 0 mm 3 mps 738 mmHg 97%
03:00 +11°C° 0 mm 3 mps 739 mmHg 96%
04:00 +11°C° 0 mm 3 mps 739 mmHg 95%
05:00 +11°C° 0 mm 4 mps 739 mmHg 94%
06:00 +12°C° 0 mm 4 mps 739 mmHg 91%
07:00 +13°C° 0 mm 4 mps 739 mmHg 87%
08:00 +14°C° 0 mm 4 mps 740 mmHg 83%
09:00 +15°C° 0.2 mm 4 mps 740 mmHg 79%
10:00 +16°C° 0.2 mm 5 mps 740 mmHg 75%
11:00 +17°C° 0.2 mm 5 mps 740 mmHg 71%
12:00 +18°C° 0.5 mm 4 mps 740 mmHg 73%
13:00 +18°C° 0.5 mm 4 mps 741 mmHg 75%
14:00 +18°C° 0.5 mm 4 mps 741 mmHg 77%
15:00 +18°C° 0.3 mm 3 mps 741 mmHg 77%
16:00 +18°C° 0.3 mm 3 mps 741 mmHg 77%
17:00 +18°C° 0.3 mm 2 mps 741 mmHg 77%
18:00 +17°C° 0 mm 2 mps 741 mmHg 82%
19:00 +16°C° 0 mm 2 mps 741 mmHg 87%
20:00 +14°C° 0 mm 2 mps 741 mmHg 92%
21:00 +14°C° 0 mm 2 mps 742 mmHg 93%
22:00 +13°C° 0 mm 2 mps 742 mmHg 93%
23:00 +13°C° 0 mm 2 mps 742 mmHg 93%

17 May, Monday

Time Temperature Precipitation Wind Pressure Humidity
00:00 +12°C° 0 mm 2 mps 742 mmHg 93%
01:00 +12°C° 0 mm 2 mps 742 mmHg 94%
02:00 +12°C° 0 mm 2 mps 742 mmHg 94%
03:00 +12°C° 0 mm 2 mps 742 mmHg 93%
04:00 +13°C° 0 mm 2 mps 742 mmHg 93%
05:00 +13°C° 0 mm 2 mps 742 mmHg 92%
06:00 +15°C° 0 mm 2 mps 742 mmHg 86%
07:00 +17°C° 0 mm 2 mps 742 mmHg 79%
08:00 +18°C° 0 mm 3 mps 742 mmHg 73%
09:00 +20°C° 0 mm 3 mps 742 mmHg 68%
10:00 +21°C° 0 mm 3 mps 742 mmHg 64%
11:00 +22°C° 0 mm 3 mps 741 mmHg 59%
12:00 +23°C° 0 mm 4 mps 741 mmHg 59%
13:00 +25°C° 0 mm 4 mps 740 mmHg 59%
14:00 +25°C° 0 mm 5 mps 740 mmHg 58%
15:00 +25°C° 0 mm 5 mps 739 mmHg 62%
16:00 +25°C° 0 mm 5 mps 739 mmHg 65%
17:00 +25°C° 0 mm 5 mps 738 mmHg 68%
18:00 +23°C° 0.1 mm 5 mps 738 mmHg 73%
19:00 +21°C° 0.1 mm 5 mps 737 mmHg 78%
20:00 +20°C° 0.1 mm 5 mps 737 mmHg 83%
21:00 +19°C° 0.1 mm 5 mps 737 mmHg 85%
22:00 +19°C° 0.1 mm 5 mps 736 mmHg 86%
23:00 +18°C° 0.1 mm 4 mps 736 mmHg 88%

18 May, Tuesday

Time Temperature Precipitation Wind Pressure Humidity
00:00 +18°C° 0 mm 4 mps 736 mmHg 89%
01:00 +17°C° 0 mm 4 mps 736 mmHg 90%
02:00 +17°C° 0 mm 4 mps 736 mmHg 91%
03:00 +17°C° 0 mm 3 mps 736 mmHg 92%
04:00 +17°C° 0 mm 3 mps 736 mmHg 92%
05:00 +17°C° 0 mm 3 mps 736 mmHg 92%
06:00 +18°C° 0.1 mm 3 mps 736 mmHg 89%
07:00 +18°C° 0.1 mm 3 mps 736 mmHg 85%
08:00 +19°C° 0.1 mm 2 mps 736 mmHg 82%
09:00 +20°C° 0.2 mm 3 mps 736 mmHg 81%
10:00 +20°C° 0.2 mm 3 mps 736 mmHg 80%
11:00 +21°C° 0.2 mm 3 mps 736 mmHg 79%
12:00 +21°C° 0.8 mm 3 mps 736 mmHg 81%
13:00 +21°C° 0.8 mm 3 mps 736 mmHg 82%
14:00 +20°C° 0.8 mm 3 mps 736 mmHg 84%
15:00 +20°C° 1.5 mm 3 mps 736 mmHg 86%
16:00 +19°C° 1.5 mm 2 mps 735 mmHg 88%
17:00 +19°C° 1.5 mm 2 mps 735 mmHg 90%
18:00 +18°C° 1.3 mm 2 mps 735 mmHg 92%
19:00 +17°C° 1.3 mm 2 mps 735 mmHg 95%
20:00 +15°C° 1.3 mm 1 mps 735 mmHg 97%
21:00 +15°C° 1 mm 1 mps 735 mmHg 97%
22:00 +15°C° 1 mm 1 mps 736 mmHg 97%
23:00 +15°C° 1 mm 1 mps 736 mmHg 97%

19 May, Wednesday

Time Temperature Precipitation Wind Pressure Humidity
00:00 +15°C° 0.2 mm 1 mps 736 mmHg 97%
01:00 +15°C° 0.2 mm 1 mps 736 mmHg 97%
02:00 +14°C° 0.2 mm 1 mps 736 mmHg 97%
03:00 +14°C° 0.2 mm 1 mps 736 mmHg 97%
04:00 +14°C° 0.2 mm 1 mps 736 mmHg 97%
05:00 +14°C° 0.2 mm 2 mps 736 mmHg 97%
06:00 +15°C° 0.1 mm 2 mps 736 mmHg 93%
07:00 +16°C° 0.1 mm 2 mps 736 mmHg 88%
08:00 +17°C° 0.1 mm 3 mps 736 mmHg 84%
09:00 +18°C° 0.3 mm 3 mps 736 mmHg 81%
10:00 +18°C° 0.3 mm 4 mps 735 mmHg 77%
11:00 +19°C° 0.3 mm 4 mps 735 mmHg 74%
12:00 +18°C° 0.9 mm 4 mps 735 mmHg 81%
13:00 +16°C° 0.9 mm 3 mps 735 mmHg 87%
14:00 +15°C° 0.9 mm 2 mps 735 mmHg 94%
15:00 +16°C° 0.5 mm 3 mps 734 mmHg 92%
16:00 +15°C° 0.5 mm 4 mps 734 mmHg 89%
17:00 +16°C° 0.5 mm 5 mps 733 mmHg 87%
18:00 +15°C° 0.3 mm 5 mps 734 mmHg 89%
19:00 +14°C° 0.3 mm 5 mps 734 mmHg 91%
20:00 +13°C° 0.3 mm 5 mps 735 mmHg 93%
21:00 +13°C° 0.1 mm 5 mps 735 mmHg 93%
22:00 +12°C° 0.1 mm 5 mps 736 mmHg 92%
23:00 +12°C° 0.1 mm 5 mps 736 mmHg 92%
Show more